Tianjin Binhai International Airport
ZBTJ : now visible

Aeroporto :











RITROVATECI SU...

 
LOGIN :

Iscrizione | Disclaimer

   EN    FR    IT 

 









Sommario :    VFR   VFR Marginale   IFR   IFR Intensivo   IFR Molto Intensivo
Visibilità : 
Base nubi : 
>= 8 km
>= 3000ft
5 / 8 km
1000 / 3000 ft
1500m / 5 km
500 / 1000 ft
800 / 1500m
200 / 500 ft
< 800m
< 200 ft
Simboli :   Temporali  Nebbia  Neve Forte  Precipitazioni Forti  Vento > 20 kt







- Altitudine del aeroporto : 10 ft
- Codice IATA : TSN


ZBTJ - Tianjin Binhai International

ULTIMO METAR :
  • 190030Z 10003MPS 4500 -SHRA BR SCT010 BKN040 FEW040TCU 23/20 Q1006 NOSIG

METARs OBSOLETI :
  • 190000Z 10004MPS 4000 BR SCT010 24/20 Q1006 NOSIG
  • 182330Z 09004MPS 060V120 4000 BR SCT010 23/20 Q1006 NOSIG
  • 182300Z 11005MPS 4000 BR SCT010 22/20 Q1006 NOSIG
  • 182230Z 11004MPS 080V140 4000 BR SCT010 22/20 Q1006 NOSIG
  • 182200Z 12004MPS 4000 BR SCT013 22/20 Q1006 NOSIG

TAF TAF ZBTJ
Valido dal 19 a 00 ore il 20 a 00 ore UTC


181930Z 1900/1924 10004MPS 5000 HZ NSC TX29/1907Z TN20/1920Z
FIR ZBPE / Asia



MetMap, La meteo Aeronautica in un colpo d'occhio ! - Copyright ORBIFLY Dicembre 2007 - Disclaimer

ORBIFLY MET'MAP TEAM :

Programmazione e sviluppo : Alexandra Zaïnal
Concezione e sviluppo : Baudouin d'Aumeries
Co-Programmazione e sviluppo : Marc-Olivier Méhu
Supporto tecnico e logistico : Manuel Goepfert
Aiuto per la traduzione : Arnaldo La Scala

Contatto : metmap@orbifly.com




FONTI E CREDITI :

   NOAA       Earth
Advisory